This is the latest recevied weather packets stored in our database for station/object CE2KVL-1. If no packets are shown the sender has not sent any weather packets the latest 10 day(s).
| Time | Temp. | Humidity | Pressure | Rain* | Wind** | Luminosity | Snow |
|---|---|---|---|---|---|---|---|
| 1777852982 | 16.67° C | 77% | 1023.2 hPa | - | - | - | - |
| 1777852682 | 17.22° C | 79% | 1022.9 hPa | - | - | - | - |
| 1777852381 | 17.22° C | 78% | 1023.4 hPa | - | - | - | - |
| 1777852081 | 17.78° C | 70% | 1023.4 hPa | - | - | - | - |
| 1777851781 | 18.33° C | 69% | 1024.2 hPa | - | - | - | - |
| 1777851482 | 19.44° C | 40% | 1022.3 hPa | - | - | - | - |
| 1777851181 | 20° C | 44% | 1020.4 hPa | - | - | - | - |
| 1777850881 | 19.44° C | 41% | 1022.2 hPa | - | - | - | - |
| 1777850581 | 19.44° C | 53% | 1022.4 hPa | - | - | - | - |
| 1777850281 | 20° C | 41% | 1021.5 hPa | - | - | - | - |
| 1777849982 | 20° C | 41% | 1021.1 hPa | - | - | - | - |
| 1777849681 | 19.44° C | 40% | 1021.7 hPa | - | - | - | - |
| 1777849381 | 20° C | 39% | 1021.4 hPa | - | - | - | - |
| 1777849081 | 20° C | 42% | 1021.8 hPa | - | - | - | - |
| 1777848781 | 20° C | 39% | 1021.2 hPa | - | - | - | - |
| 1777848481 | 20° C | 39% | 1020.6 hPa | - | - | - | - |
| 1777848182 | 20° C | 37% | 1021.3 hPa | - | - | - | - |
| 1777847881 | 20° C | 37% | 1021.3 hPa | - | - | - | - |
| 1777847581 | 20° C | 37% | 1021.6 hPa | - | - | - | - |
| 1777847281 | 20° C | 36% | 1021.2 hPa | - | - | - | - |
| 1777846981 | 20° C | 37% | 1021.2 hPa | - | - | - | - |
| 1777846681 | 20° C | 37% | 1021 hPa | - | - | - | - |
| 1777846381 | 20° C | 37% | 1021.4 hPa | - | - | - | - |
| 1777846081 | 20.56° C | 36% | 1021.2 hPa | - | - | - | - |
| 1777845781 | 20.56° C | 37% | 1020.5 hPa | - | - | - | - |
* Rain since midnight (hover to see other rain measurements)
** Current wind speed in m/s (hover to see current wind gust speed)